Volver al catálogo

NIMBUS 2 DEB

ActivoSSO
NORAD 59977·DEBRIS·🇺🇸 United States

Lanzado May 15, 1966 desde Vandenberg Space Force Base

Loading…

Próximos Pases (próximas 24 horas)

TLE

ActualizadoSource: Space-Track

Época: Sep 14, 2026, 11:19 UTC

1 59977U 66040CG  26257.47170381  .00000872  00000-0  16438-2 0  9997
2 59977 100.3136  74.2915 0051280 354.1709   5.8816 13.41195470470224

Sigue NIMBUS 2 DEB en tiempo real con AllMySat

Download on the App Store